FW6809 Weather Reports


Display with metric or nautical units.
time (UTC)temp
F
wind
direction
speed
MPH
gust
MPH
rain 1hr
in
rain 24hr
in
rain mn
in
humidity
%
barometer
mb
20260904103056 71 0 0.0 0.0 0.00 0.00 0.00 99 1019.6
20260904101554 71 0 0.0 0.0 0.00 0.00 0.00 99 1019.5
20260904100101 71 0 0.0 0.0 0.00 0.00 0.00 99 1019.4
20260904094600 71 0 0.0 0.0 0.00 0.00 0.00 98 1019.2
20260904093055 72 0 0.0 0.0 0.00 0.00 0.00 98 1019.2
20260904091555 72 0 0.0 0.0 0.00 0.00 0.00 98 1019.0
20260904090059 72 0 0.0 2.0 0.00 0.00 0.00 98 1018.8
20260904084558 72 0 0.0 0.0 0.00 0.00 0.00 98 1018.9
20260904083101 72 0 0.0 0.0 0.00 0.00 0.00 98 1018.9
20260904081557 72 0 0.0 0.0 0.00 0.00 0.00 98 1018.8
20260904080100 73 0 0.0 0.0 0.00 0.00 0.00 97 1018.7
20260904074555 73 0 0.0 0.0 0.00 0.00 0.00 97 1018.7
20260904073056 73 0 0.0 0.0 0.00 0.00 0.00 97 1018.7
20260904071601 73 0 0.0 0.0 0.00 0.00 0.00 96 1018.7
20260904070059 73 0 0.0 0.0 0.00 0.00 0.00 97 1018.7
20260904064557 73 0 0.0 0.0 0.00 0.00 0.00 98 1018.6
20260904063053 73 0 0.0 0.0 0.00 0.00 0.00 98 1018.7
20260904061557 72 0 0.0 0.0 0.00 0.00 0.00 98 1018.9
20260904060057 72 0 0.0 0.0 0.00 0.00 0.00 99 1018.9
20260904054554 72 0 0.0 0.0 0.00 0.00 0.00 98 1019.1
20260904053050 72 0 0.0 0.0 0.00 0.00 0.00 98 1019.2
20260904051612 72 0 0.0 0.0 0.00 0.00 0.00 98 1019.4
20260904050056 72 0 0.0 0.0 0.00 0.00 0.00 98 1019.4
20260904044557 72 0 0.0 0.0 0.00 0.00 0.00 97 1019.4
20260904043105 73 0 0.0 0.0 0.00 0.00 0.00 97 1019.4
20260904041551 73 0 0.0 0.0 0.00 0.00 0.00 97 1019.5
20260904040056 73 0 0.0 0.0 0.00 0.00 0.00 96 1019.3
20260904034558 74 0 0.0 0.0 0.00 0.00 0.00 96 1019.4
20260904033056 74 0 0.0 0.0 0.00 0.00 0.00 96 1019.4
20260904031555 74 0 0.0 0.0 0.00 0.00 0.00 96 1019.5
20260904030108 74 0 0.0 0.0 0.00 0.00 0.00 96 1019.7
20260904024601 74 0 0.0 0.0 0.00 0.00 0.00 96 1019.6
20260904023055 74 0 0.0 0.0 0.00 0.00 0.00 96 1019.4
20260904021556 75 0 0.0 0.0 0.00 0.00 0.00 96 1019.4
20260904020101 75 0 0.0 0.0 0.00 0.00 0.00 95 1019.3
20260904014613 75 0 0.0 0.0 0.00 0.00 0.00 94 1019.3
20260904013058 76 0 0.0 0.0 0.00 0.00 0.00 94 1019.1
20260904011602 76 0 0.0 0.0 0.00 0.00 0.00 93 1019.0
20260904010057 77 0 0.0 0.0 0.00 0.00 0.00 92 1018.8
20260904004552 78 0 0.0 0.0 0.00 0.00 0.00 92 1018.7
20260904003055 79 0 0.0 0.0 0.00 0.00 0.00 92 1018.5
20260904001557 79 0 0.0 0.0 0.00 0.00 0.00 90 1018.3
20260904000100 80 0 0.0 0.0 0.00 0.00 0.00 90 1018.1
20260903234558 81 0 0.0 0.0 0.00 0.00 0.00 89 1018.3
20260903233056 83 0 0.0 0.0 0.00 0.00 0.00 86 1018.1
20260903231608 85 0 0.0 0.0 0.00 0.00 0.00 82 1018.0
20260903230100 87 0 0.0 0.0 0.00 0.00 0.00 78 1017.9
20260903224602 89 0 0.0 2.0 0.00 0.00 0.00 67 1017.8
20260903223101 90 0 0.0 1.0 0.00 0.00 0.00 65 1017.9
20260903221601 90 0 0.0 0.0 0.00 0.00 0.00 64 1018.0
20260903220121 91 0 0.0 0.0 0.00 0.00 0.00 59 1017.8
20260903214555 91 0 0.0 4.0 0.00 0.00 0.00 58 1017.8
20260903213056 91 0 0.0 0.0 0.00 0.00 0.00 62 1017.8
20260903211604 91 0 0.0 1.0 0.00 0.00 0.00 59 1017.9
20260903210107 91 0 0.0 0.0 0.00 0.00 0.00 56 1018.1
20260903204559 92 0 0.0 4.0 0.00 0.00 0.00 57 1018.1
20260903203057 92 0 1.0 5.0 0.00 0.00 0.00 54 1018.3
20260903201557 92 0 0.0 3.0 0.00 0.00 0.00 58 1018.2
20260903200052 92 0 0.0 3.0 0.00 0.00 0.00 57 1018.5
20260903194559 91 107 0.0 1.0 0.00 0.00 0.00 56 1018.7
20260903193056 92 0 1.0 4.0 0.00 0.00 0.00 57 1018.7
20260903191559 90 0 0.0 0.0 0.00 0.00 0.00 66 1018.7
20260903190104 92 0 0.0 3.0 0.00 0.00 0.00 58 1019.3
20260903184601 91 0 0.0 0.0 0.00 0.00 0.00 67 1019.3
20260903183100 89 0 0.0 0.0 0.00 0.00 0.00 74 1019.5
20260903181554 91 0 0.0 1.0 0.00 0.00 0.00 61 1019.7
20260903180104 90 0 0.0 0.0 0.00 0.00 0.00 73 1019.9
20260903174558 91 0 0.0 0.0 0.00 0.00 0.00 70 1020.0
20260903173056 90 0 0.0 0.0 0.00 0.00 0.00 67 1020.1
20260903171553 91 0 0.0 2.0 0.00 0.00 0.00 64 1020.3
20260903170058 93 120 1.0 5.0 0.00 0.00 0.00 59 1020.4
20260903164607 92 0 0.0 2.0 0.00 0.00 0.00 61 1020.6
20260903163052 92 167 0.0 3.0 0.00 0.00 0.00 59 1020.8
20260903161600 92 0 0.0 2.0 0.00 0.00 0.00 60 1020.9
20260903160106 92 0 0.0 0.0 0.00 0.00 0.00 63 1021.0
20260903154605 92 0 0.0 2.0 0.00 0.00 0.00 64 1021.0
20260903153059 91 0 0.0 0.0 0.00 0.00 0.00 66 1021.0
20260903151554 91 0 0.0 0.0 0.00 0.00 0.00 69 1021.0
20260903150105 90 0 0.0 0.0 0.00 0.00 0.00 74 1021.0
20260903144559 89 0 0.0 0.0 0.00 0.00 0.00 78 1021.0
20260903143111 88 0 0.0 0.0 0.00 0.00 0.00 79 1021.0
20260903141555 87 0 0.0 0.0 0.00 0.00 0.00 80 1020.9
20260903140057 86 0 0.0 0.0 0.00 0.00 0.00 80 1021.0
20260903134600 85 0 0.0 0.0 0.00 0.00 0.00 80 1021.1
20260903133110 83 0 0.0 0.0 0.00 0.00 0.00 84 1021.0
20260903131608 81 0 0.0 0.0 0.00 0.00 0.00 86 1021.3
20260903130107 79 0 0.0 0.0 0.00 0.00 0.00 87 1021.3
20260903124551 77 0 0.0 0.0 0.00 0.00 0.00 89 1021.3
20260903123058 74 0 0.0 0.0 0.00 0.00 0.00 98 1021.3
20260903121555 71 0 0.0 0.0 0.00 0.00 0.00 100 1021.3
20260903120055 69 0 0.0 0.0 0.00 0.00 0.00 100 1021.2
20260903114549 68 0 0.0 0.0 0.00 0.00 0.00 100 1020.9
20260903113056 68 0 0.0 0.0 0.00 0.00 0.00 100 1020.9
20260903111604 68 0 0.0 0.0 0.00 0.00 0.00 100 1020.6
20260903110059 68 0 0.0 0.0 0.00 0.00 0.00 100 1020.6
20260903104556 69 0 0.0 0.0 0.00 0.00 0.00 100 1020.6